W5GED Weather Reports


time (UTC)temp
C
wind
direction
speed
KPH
gust
KPH
rain 1hr
cm
rain 24hr
cm
rain mn
cm
humidity
%
barometer
mb
20260502170517 21 23 8.0 16.1 0.00 4.22 0.00 55 1020.0
20260502164021 20 2 8.0 14.5 0.00 4.22 0.00 58 1020.0
20260502163018 20 3 6.4 14.5 0.00 4.27 0.00 59 1020.0
20260502162018 20 33 8.0 17.7 0.00 4.27 0.00 60 1020.0
20260502161018 19 34 6.4 14.5 0.00 4.32 0.00 63 1020.0
20260502152035 17 7 4.8 11.3 0.00 4.62 0.00 70 1019.7
20260502151019 17 357 4.8 12.9 0.00 4.62 0.00 72 1019.8
20260502123024 11 340 3.2 6.4 0.00 5.31 0.00 94 1018.1
20260502122024 11 330 3.2 6.4 0.00 5.31 0.00 94 1018.0
20260502121024 11 346 3.2 6.4 0.00 5.36 0.00 94 1017.9
20260502115024 11 344 3.2 4.8 0.00 5.36 0.00 93 1017.6
20260502114024 11 346 3.2 4.8 0.00 5.38 0.00 93 1017.6
20260502113024 11 303 1.6 3.2 0.00 5.38 0.00 92 1017.6
20260502112024 11 319 1.6 3.2 0.00 5.38 0.00 92 1017.5
20260502111025 11 352 1.6 4.8 0.00 5.38 0.00 92 1017.3
20260502110025 11 336 3.2 6.4 0.00 5.38 0.00 92 1017.1
20260502105025 12 356 3.2 4.8 0.00 5.38 0.00 91 1017.0
20260502104025 12 349 3.2 4.8 0.00 5.38 0.00 91 1017.0
20260502103025 12 351 3.2 4.8 0.00 5.41 0.00 91 1016.9
20260502102025 12 356 3.2 6.4 0.00 5.41 0.00 90 1016.7
20260502101026 12 349 3.2 4.8 0.00 5.44 0.00 90 1016.6
20260502091026 13 51 3.2 8.0 0.00 5.94 0.00 88 1015.5
20260502071018 13 43 6.4 11.3 0.00 6.76 0.00 92 1015.3
20260502070028 13 40 4.8 6.4 0.00 6.83 0.00 92 1015.5
20260502065027 13 45 3.2 8.0 0.00 6.83 0.00 92 1015.4
20260502064020 13 42 4.8 11.3 0.00 6.83 0.00 91 1015.5
20260502063039 13 19 6.4 12.9 0.00 6.83 0.00 91 1015.4
20260502062019 13 7 4.8 9.7 0.00 6.83 0.00 92 1015.2
20260502061019 13 20 6.4 12.9 0.00 6.83 0.00 92 1015.2
20260502060019 13 293 6.4 11.3 0.00 6.83 0.00 92 1015.2
20260502055019 13 274 4.8 11.3 0.00 6.83 0.00 92 1015.2
20260502054019 13 274 4.8 9.7 0.00 6.83 0.00 92 1015.2
20260502053019 13 274 6.4 14.5 0.00 6.86 0.00 93 1015.1
20260502052020 13 272 8.0 14.5 0.00 6.96 0.00 93 1015.0
20260502051020 13 274 8.0 14.5 0.00 6.96 0.00 94 1015.1
20260502050020 13 272 8.0 12.9 0.00 6.96 0.00 94 1014.9
20260502045020 13 271 4.8 12.9 0.00 6.99 6.99 94 1014.7
20260502044020 13 273 4.8 9.7 0.00 7.42 6.99 94 1014.7
20260502043020 13 273 4.8 9.7 0.00 7.47 6.99 94 1014.8
20260502042021 13 273 4.8 9.7 0.00 7.47 6.99 95 1015.1
20260502041030 -17 272 4.8 4.8 0.00 7.47 6.99
20260502040021 13 274 6.4 12.9 0.00 7.47 6.99 96 1014.8
20260502035030 13 274 3.2 8.0 0.00 7.47 6.99 96 1014.9
20260502034021 13 274 4.8 8.0 0.00 7.47 6.99 96 1014.9
20260502033041 13 269 4.8 16.1 0.00 7.47 6.99 97 1014.7
20260502032021 13 273 4.8 8.0 0.00 7.47 6.99 97 1014.4
20260502031021 13 263 4.8 11.3 0.00 7.47 6.99 97 1014.3
20260502030021 13 261 4.8 9.7 0.03 7.47 6.99 97 1014.1
20260502025021 13 250 6.4 12.9 0.03 7.47 6.99 97 1013.6
20260502024042 13 250 6.4 11.3 0.05 7.47 6.99 97 1013.3
20260502023019 13 257 8.0 17.7 0.08 7.47 6.96 97 1013.1
20260502022016 13 263 8.0 14.5 0.10 7.47 6.96 97 1013.3
20260502021015 13 260 6.4 11.3 0.13 7.44 6.96 97 1012.8
20260502020022 14 270 6.4 14.5 0.18 7.44 6.96 97 1013.0
20260502015022 14 264 4.8 9.7 0.23 7.44 6.93 97 1012.8
20260502014022 15 266 8.0 12.9 0.20 7.42 6.91 97 1012.8
20260502013036 15 269 4.8 11.3 0.18 7.37 6.88 98 1012.6
20260502012016 15 270 3.2 6.4 0.20 7.37 6.86 97 1012.5
20260502011017 15 270 6.4 9.7 0.23 7.32 6.83 97 1012.1
20260502010016 15 0.0 0.0 0.23 7.29 6.78 97 1011.9
20260502005023 15 271 4.8 6.4 0.18 7.21 6.73 97 1012.4
20260502004052 15 269 3.2 4.8 0.20 7.19 6.71 97 1012.5
20260502003023 15 270 4.8 11.3 0.20 7.19 6.68 97 1011.4
20260502002017 15 268 8.0 14.5 0.18 7.16 6.68 97 1011.1
20260502001017 15 265 4.8 11.3 0.13 7.11 6.60 97 1011.5
20260502000023 15 267 6.4 11.3 0.10 7.04 6.55 97 1011.4
20260501235018 15 13 14.5 20.9 0.20 7.04 6.53 97 1011.6
20260501234227 -17 10 14.5 19.3 0.18 6.99 6.50
20260501233044 -17 14 14.5 19.3 0.18 6.99 6.50
20260501232100 15 10 12.9 20.9 0.18 6.99 6.50 96 1009.7
20260501231018 15 351 16.1 27.4 0.18 6.99 6.50 96 1009.7
20260501230018 16 0.0 0.0 0.13 6.93 6.45 96 1010.5
20260501225018 16 0.0 0.0 0.03 6.83 6.32 96 1011.0
20260501224017 16 315 12.9 17.7 0.00 6.81 6.32 97 1009.6
20260501223017 16 317 11.3 25.7 0.00 6.81 6.32 97 1009.4
20260501222016 16 275 9.7 16.1 0.03 6.81 6.32 97 1009.5
20260501221037 16 280 9.7 12.9 0.08 6.81 6.32 97 1009.4
20260501215543 16 252 8.0 12.9 0.15 6.81 6.32 98 1009.8
20260501214528 16 0.0 0.0 0.15 6.81 6.32 98 1010.1
20260501213519 16 0.0 0.0 0.18 6.81 6.32 98 1010.1
20260501212537 16 128 20.9 48.3 0.30 6.81 6.32 98 1010.3
20260501211516 16 123 24.1 62.8 0.61 6.76 6.27 98 1010.2
20260501210516 16 132 48.3 80.5 0.61 6.68 6.20 98 1010.3
20260501205517 16 131 43.5 80.5 0.71 6.65 6.15 98 1008.9
20260501204518 16 130 17.7 67.6 0.74 6.63 6.15 98 1009.0
20260501203520 16 102 16.1 30.6 0.76 6.63 6.12 98 1008.9
20260501202518 16 65 6.4 11.3 0.71 6.50 5.99 98 1009.1
20260501201629 -17 41 4.8 4.8 0.51 6.15 5.66
20260501200517 16 47 4.8 9.7 0.46 6.07 5.59 98 1009.0
20260501195518 16 58 6.4 12.9 0.51 5.94 5.44 98 1008.6
20260501194518 16 42 6.4 12.9 0.56 5.92 5.41 98 1008.5
20260501193519 16 0.0 0.0 0.51 5.84 5.36 98 1008.7
20260501192526 16 56 8.0 12.9 0.48 5.77 5.28 98 1008.5
20260501191814 16 29 4.8 12.9 0.94 5.64 5.16 98 1009.1
20260501190603 16 31 6.4 16.1 1.30 5.64 5.13 98 1009.0
20260501185520 16 277 3.2 9.7 1.09 5.44 4.93 98 1009.4
20260501184521 16 107 4.8 8.0 1.42 5.33 4.85 98 1008.6
20260501183739 -17 341 4.8 8.0 1.75 5.33 4.85
20260501182518 16 352 16.1 33.8 1.80 5.28 4.80 98 1007.8
20260501181518 16 5 16.1 40.2 1.42 4.72 4.22 98 1009.2
20260501180518 16 16 16.1 37.0 1.09 4.34 3.86 98 1008.1
20260501175531 17 43 11.3 19.3 1.09 4.32 3.84 98 1008.6
20260501174515 17 81 11.3 19.3 0.69 3.91 3.43 98 1009.1
20260501173520 17 121 3.2 8.0 0.36 3.61 3.10 98 1010.0